{"data":{"norad_id":68441,"epoch":"2026-09-19T07:29:13.829568Z","epoch_age_seconds":171476,"freshness":"FRESH","line1":"1 68441U 26067AB  26262.31196562  .00002991  00000+0  14671-3 0  9997","line2":"2 68441  97.4588 219.3255 0004548 100.8895 259.2851 15.18874570 26225","mean_motion":15.1887457,"eccentricity":0.0004548,"inclination_deg":97.4588,"raan_deg":219.3255,"arg_perigee_deg":100.8895,"mean_anomaly_deg":259.2851,"bstar":0.00014671,"rev_number":2622,"period_min":94.807038608856,"perigee_km":506.10833012063,"apogee_km":512.3730888852,"semimajor_km":6887.3777095029,"source":"CELESTRAK","updated_at":"2026-09-20T09:00:24.205386Z"}}